This is the latest recevied weather packets stored in our database for station/object KC4LZN. If no packets are shown the sender has not sent any weather packets the latest 10 day(s).
| Time | Temp. | Humidity | Pressure | Rain* | Wind** | Luminosity | Snow |
|---|---|---|---|---|---|---|---|
| 1777744116 | 30° C | 62% | 1011.3 hPa | 0 mm | - | 238 W/m² | - |
| 1777743812 | 30° C | 62% | 1011.2 hPa | 0 mm | - | 196 W/m² | - |
| 1777743509 | 30° C | 64% | 1011.2 hPa | 0 mm | - | 294 W/m² | - |
| 1777743206 | 30° C | 65% | 1011.1 hPa | 0 mm | - | 403 W/m² | - |
| 1777742904 | 30° C | 64% | 1011.2 hPa | 0 mm | - | 485 W/m² | - |
| 1777742601 | 30° C | 65% | 1011.4 hPa | 0 mm | - | 534 W/m² | - |
| 1777742296 | 30° C | 64% | 1011.1 hPa | 0 mm | - | 707 W/m² | - |
| 1777741993 | 30° C | 62% | 1011.2 hPa | 0 mm | - | 364 W/m² | - |
| 1777741690 | 30° C | 63% | 1011.5 hPa | 0 mm | - | 355 W/m² | - |
| 1777741386 | 29.44° C | 64% | 1011.5 hPa | 0 mm | - | 414 W/m² | - |
| 1777741083 | 30.56° C | 63% | 1011.4 hPa | 0 mm | - | 301 W/m² | - |
| 1777740780 | 30° C | 63% | 1011.4 hPa | 0 mm | - | 565 W/m² | - |
| 1777740476 | 29.44° C | 65% | 1011.4 hPa | 0 mm | - | 371 W/m² | - |
| 1777740174 | 29.44° C | 64% | 1011.2 hPa | 0 mm | - | 321 W/m² | - |
| 1777739869 | 29.44° C | 64% | 1011.5 hPa | 0 mm | - | 386 W/m² | - |
| 1777739566 | 29.44° C | 64% | 1011.4 hPa | 0 mm | - | 430 W/m² | - |
| 1777739264 | 29.44° C | 64% | 1011.3 hPa | 0 mm | - | 386 W/m² | - |
| 1777738960 | 29.44° C | 65% | 1011.5 hPa | 0 mm | - | 350 W/m² | - |
| 1777738657 | 29.44° C | 64% | 1011.3 hPa | 0 mm | - | 282 W/m² | - |
| 1777738354 | 29.44° C | 64% | 1011.5 hPa | 0 mm | - | 306 W/m² | - |
| 1777738052 | 28.89° C | 64% | 1011.6 hPa | 0 mm | - | 312 W/m² | - |
| 1777737751 | 29.44° C | 64% | 1011.3 hPa | 0 mm | - | 321 W/m² | - |
| 1777737449 | 29.44° C | 65% | 1011.3 hPa | 0 mm | - | 361 W/m² | - |
| 1777737147 | 29.44° C | 65% | 1011.3 hPa | 0 mm | - | 383 W/m² | - |
| 1777736842 | 29.44° C | 65% | 1011.5 hPa | 0 mm | - | 404 W/m² | - |
* Rain latest hour (hover to see other rain measurements)
** Current wind speed in m/s (hover to see current wind gust speed)